User: anonymous   Login
Location: Caltech
(34.1382°N, 118.1253°W)
Time: 22:19:43
(UTC-07:00)
Language:

Cosmos 2251 Rocket - Orbit

View from above orbital plane
View from above orbital plane
View from above satellite
View from above satellite

Ground track
Ground track

The orbit data is extracted from the following two-line orbital elements,

1 22676U 93036B   17115.87140876 +.00000092 +00000-0 +42185-4 0  9995
2 22676 074.0413 277.5485 0019531 315.5312 044.4271 14.33915645247568
Epoch (UTC): 25 April 2017 20:54:49
Eccentricity: 0.0019531
inclination: 74.0413°
perigee height: 764 km
apogee height: 792 km
right ascension of ascending node: 277.5485°
argument of perigee: 315.5312°
revolutions per day: 14.33915645
mean anomaly at epoch: 44.4271°
orbit number at epoch: 24756

The dashed part of the orbit path shows where the satellite is in the earth's shadow,  

DLR